Grants-Milan, NM

4:52 AM MDT on April 23, 2017 (GMT -0600)
Grants-Milan Municipal

Weather History for KGNT - October, 2013

Change the Weather History Date:

Wednesday, October 9, 2013

  Actual Average Record
Temperature  
Mean Temperature 50 °F -  
Max Temperature 72 °F 72 °F 83 °F (1980)
Min Temperature 29 °F 34 °F 21 °F (1970)
Degree Days  
Heating Degree Days 14    
Moisture  
Dew Point 26 °F    
Average Humidity 41    
Maximum Humidity 78    
Minimum Humidity 16    
Precipitation  
Precipitation 0.00 in - - ()
Sea Level Pressure  
Sea Level Pressure 30.01 in    
Wind  
Wind Speed 6 mph (South)    
Max Wind Speed 21 mph    
Max Gust Speed 31 mph    
Visibility 10 miles    
Events      
Averages and records for this station are not official NWS values.
T = Trace of Precipitation, MM = Missing Value Source: NWS Daily Summary

Daily Weather History Graph

Daily Weather History Graph

Search for Another Location

Airport or City:

Trip Planner

Search our weather history database for the weather conditions in past years. The results will help you decide how hot, cold, wet, or windy it might be!

Date:

Astronomy

Oct. 09, 2013 Rise Set
Actual Time 7:12 AM MDT 6:43 PM MDT
Civil Twilight 6:47 AM MDT 7:09 PM MDT
Nautical Twilight 6:18 AM MDT 7:38 PM MDT
Astronomical Twilight 5:48 AM MDT 8:08 PM MDT
Moon 12:02 PM MDT (10/9) 10:30 PM MDT (10/9)
Length of Visible Light 12h 21m
Length of Day
11h 31m
Waxing Crescent, 26% of the Moon is Illuminated
Oct 9
Waxing Crescent
Oct 11
First Quarter
Oct 18
Full
Oct 26
Last Quarter
Nov 3
New

Hourly Weather History & Observations

Time (MDT) Temp. Windchill Dew Point Humidity Pressure Visibility Wind Dir Wind Speed Gust Speed Precip Events Conditions
12:15 AM 44.1 °F 42.5 °F 26.4 °F 50% 30.04 in 10.0 mi South 3.5 mph - N/A   Clear
12:35 AM 42.8 °F - 26.2 °F 52% 30.04 in 10.0 mi Calm Calm - N/A   Clear
12:55 AM 41.4 °F - 27.0 °F 57% 30.04 in 10.0 mi Calm Calm - N/A   Clear
1:15 AM 40.3 °F - 26.6 °F 58% 30.04 in 10.0 mi Calm Calm - N/A   Clear
1:35 AM 38.5 °F - 26.4 °F 62% 30.03 in 10.0 mi Calm Calm - N/A   Clear
1:55 AM 39.7 °F 35.6 °F 27.5 °F 62% 30.03 in 10.0 mi SSW 5.8 mph - N/A   Clear
2:15 AM 40.3 °F 38.2 °F 27.1 °F 59% 30.04 in 10.0 mi SSW 3.5 mph - N/A   Clear
2:35 AM 40.8 °F - 27.1 °F 58% 30.04 in 10.0 mi Calm Calm - N/A   Clear
2:55 AM 38.1 °F - 26.8 °F 64% 30.04 in 10.0 mi Calm Calm - N/A   Clear
3:15 AM 40.5 °F - 27.0 °F 59% 30.04 in 10.0 mi Calm Calm - N/A   Clear
3:35 AM 38.1 °F 35.7 °F 27.0 °F 64% 30.02 in 10.0 mi South 3.5 mph - N/A   Clear
3:55 AM 41.5 °F - 27.0 °F 56% 30.02 in 10.0 mi Calm Calm - N/A   Clear
4:15 AM 34.5 °F - 25.0 °F 68% 30.02 in 10.0 mi Calm Calm - N/A   Clear
4:35 AM 34.2 °F - 25.5 °F 71% 30.02 in 10.0 mi Calm Calm - N/A   Clear
4:55 AM 35.6 °F 32.8 °F 26.6 °F 70% 30.03 in 10.0 mi SW 3.5 mph - N/A   Clear
5:15 AM 37.9 °F - 27.0 °F 65% 30.03 in 10.0 mi Calm Calm - N/A   Clear
5:35 AM 32.0 °F 26.4 °F 23.7 °F 71% 30.03 in 10.0 mi NNW 5.8 mph - N/A   Clear
5:55 AM 32.0 °F - 23.7 °F 71% 30.03 in 10.0 mi Calm Calm - N/A   Clear
6:15 AM 32.0 °F - 23.7 °F 71% 30.04 in 10.0 mi Calm Calm - N/A   Clear
6:35 AM 29.5 °F - 23.2 °F 77% 30.04 in 10.0 mi Calm Calm - N/A   Clear
6:55 AM 29.5 °F - 23.4 °F 78% 30.04 in 10.0 mi Calm Calm - N/A   Clear
7:15 AM 30.2 °F 26.7 °F 23.9 °F 77% 30.04 in 10.0 mi NW 3.5 mph - N/A   Clear
7:35 AM 30.7 °F 27.3 °F 23.0 °F 73% 30.04 in 10.0 mi NNW 3.5 mph - N/A   Clear
7:55 AM 31.8 °F 28.5 °F 25.3 °F 77% 30.05 in 10.0 mi NW 3.5 mph - N/A   Clear
8:15 AM 35.8 °F - 25.5 °F 66% 30.05 in 10.0 mi Calm Calm - N/A   Clear
8:35 AM 39.4 °F - 27.3 °F 62% 30.06 in 10.0 mi Calm Calm - N/A   Clear
8:55 AM 46.4 °F 45.2 °F 28.8 °F 50% 30.05 in 10.0 mi SE 3.5 mph - N/A   Clear
9:15 AM 49.8 °F - 29.1 °F 45% 30.05 in 10.0 mi ESE 3.5 mph - N/A   Clear
9:35 AM 53.1 °F - 28.9 °F 40% 30.06 in 10.0 mi SE 10.4 mph - N/A   Clear
9:55 AM 56.7 °F - 28.8 °F 34% 30.04 in 10.0 mi ESE 12.7 mph - N/A   Clear
10:15 AM 61.0 °F - 26.8 °F 27% 30.04 in 10.0 mi SSE 16.1 mph 24.2 mph N/A   Clear
10:35 AM 62.4 °F - 24.4 °F 24% 30.04 in 10.0 mi South 16.1 mph 25.3 mph N/A   Clear
10:55 AM 63.3 °F - 23.5 °F 22% 30.05 in 10.0 mi South 17.3 mph 25.3 mph N/A   Clear
11:15 AM 64.0 °F - 23.9 °F 22% 30.04 in 10.0 mi South 13.8 mph 21.9 mph N/A   Clear
11:35 AM 65.1 °F - 23.0 °F 20% 30.04 in 10.0 mi South 17.3 mph 25.3 mph N/A   Clear
11:55 AM 65.5 °F - 23.2 °F 20% 30.03 in 10.0 mi SSE 13.8 mph 24.2 mph N/A   Clear
12:15 PM 66.6 °F - 23.5 °F 20% 30.03 in 10.0 mi South 18.4 mph - N/A   Clear
12:35 PM 66.7 °F - 23.4 °F 19% 30.02 in 10.0 mi SE 15.0 mph 21.9 mph N/A   Clear
12:55 PM 67.5 °F - 24.1 °F 19% 30.01 in 10.0 mi South 11.5 mph 24.2 mph N/A   Clear
1:15 PM 69.1 °F - 22.6 °F 17% 30.00 in 10.0 mi South 10.4 mph 23.0 mph N/A   Clear
1:35 PM 69.8 °F - 20.7 °F 16% 29.99 in 10.0 mi SSW 17.3 mph 24.2 mph N/A   Scattered Clouds
1:55 PM 68.2 °F - 20.8 °F 17% 29.98 in 10.0 mi SSE 12.7 mph 21.9 mph N/A   Scattered Clouds
2:15 PM 71.6 °F - 22.6 °F 16% 29.98 in 10.0 mi SSW 13.8 mph 28.8 mph N/A   Mostly Cloudy
2:55 PM 68.4 °F - 25.3 °F 20% 29.96 in 10.0 mi South 10.4 mph 17.3 mph N/A   Overcast
3:15 PM 72.0 °F - 22.6 °F 16% 29.95 in 10.0 mi SW 20.7 mph 31.1 mph N/A   Mostly Cloudy
3:35 PM 71.2 °F - 22.1 °F 16% 29.95 in 10.0 mi SSW 15.0 mph 28.8 mph N/A   Scattered Clouds
3:55 PM 72.0 °F - 22.6 °F 16% 29.95 in 10.0 mi SSW 11.5 mph 20.7 mph N/A   Scattered Clouds
4:15 PM 70.2 °F - 23.4 °F 17% 29.95 in 10.0 mi SW 16.1 mph 25.3 mph N/A   Scattered Clouds
4:35 PM 69.1 °F - 24.4 °F 19% 29.95 in 10.0 mi South 12.7 mph 25.3 mph N/A   Scattered Clouds
4:55 PM 69.3 °F - 24.6 °F 19% 29.94 in 10.0 mi SW 9.2 mph 20.7 mph N/A   Scattered Clouds
5:15 PM 68.2 °F - 23.5 °F 19% 29.94 in 10.0 mi South 16.1 mph 19.6 mph N/A   Clear
5:55 PM 65.5 °F - 24.4 °F 21% 29.94 in 10.0 mi SSW 12.7 mph 17.3 mph N/A   Scattered Clouds
6:15 PM 65.5 °F - 24.8 °F 21% 29.95 in 10.0 mi South 15.0 mph 24.2 mph N/A   Scattered Clouds
6:35 PM 64.4 °F - 24.8 °F 22% 29.95 in 10.0 mi SSW 12.7 mph 20.7 mph N/A   Clear
6:55 PM 63.1 °F - 25.0 °F 23% 29.96 in 10.0 mi South 10.4 mph 18.4 mph N/A   Clear
7:15 PM 61.5 °F - 25.2 °F 25% 29.97 in 10.0 mi South 9.2 mph - N/A   Clear
7:35 PM 59.4 °F - 26.1 °F 28% 29.98 in 10.0 mi South 6.9 mph - N/A   Clear
7:55 PM 60.1 °F - 26.1 °F 27% 29.98 in 10.0 mi SSE 8.1 mph - N/A   Scattered Clouds
8:15 PM 56.3 °F - 25.9 °F 31% 29.98 in 10.0 mi SE 8.1 mph - N/A   Scattered Clouds
8:35 PM 56.5 °F - 26.6 °F 32% 29.98 in 10.0 mi SSE 9.2 mph - N/A   Scattered Clouds
8:55 PM 54.7 °F - 27.1 °F 35% 29.98 in 10.0 mi SE 9.2 mph - N/A   Scattered Clouds
9:15 PM 54.3 °F - 27.5 °F 36% 29.98 in 10.0 mi SSE 9.2 mph - N/A   Clear
9:35 PM 54.7 °F - 28.2 °F 36% 29.98 in 10.0 mi South 9.2 mph - N/A   Clear
9:55 PM 54.1 °F - 28.8 °F 38% 29.98 in 10.0 mi SSE 9.2 mph - N/A   Clear
10:15 PM 53.2 °F - 29.3 °F 40% 29.98 in 10.0 mi South 9.2 mph - N/A   Clear
10:55 PM 52.3 °F - 29.3 °F 41% 29.98 in 10.0 mi SSE 9.2 mph - N/A   Clear
11:15 PM 52.5 °F - 29.5 °F 41% 29.97 in 10.0 mi SSE 9.2 mph - N/A   Clear
11:35 PM 50.5 °F - 29.8 °F 45% 29.97 in 10.0 mi SSE 9.2 mph - N/A   Clear
11:55 PM 48.9 °F - 30.2 °F 48% 29.97 in 10.0 mi South 9.2 mph - N/A   Clear